Weather in Tomsk

Russia / Tomsk District     56°29′04″N   84°56′51″E
temp.,
°C
wind,
m/s
gust,
m/s
humid.,
%
clouds,
%
prec.,
mm/h
press.,
hPa
HPBL,
m
7 may, fri
fri701:00+14s3975100 0.0 1000151
04:00+14sw21076100 0.0 999218
07:00+12nw51182100 0.0 1003713
10:00+14nw685483 0.0 10051138
13:00+17wnw683961 0.0 10062361
16:00+17wnw693292 0.0 10082861
19:00+15w693677 0.0 10102431
22:00+11w385283 0.0 1012248
8 may, sat
sat801:00+8wnw27590 0.0 1015202
04:00+6wsw4116412 0.0 1015332
07:00+7wsw412620 0.0 1016512
10:00+13w614424 0.0 10142028
13:00+16wnw7133466 0.0 10132620
16:00+17w814446 0.1 10122540
19:00+14wnw6125175 0.4 10131854
22:00+8nnw376495 0.0 1016252
9 may, sun
sun901:00+5nnw277736 0.0 1017211
04:00+3nnw37795 0.0 1018314
07:00+3nnw36775 0.0 1020333
10:00+7nnw34545 0.0 10201173
13:00+11n354028 0.0 10201739
16:00+13n453692 0.0 10202254
19:00+11ne55465 0.0 10211504
22:00+6ne39683 0.0 1023341
10 may, mon
mon1001:00+3ene27795 0.0 1024176
04:00+2ne29825 0.0 1023210
07:00+3ene37755 0.0 1023272
10:00+9ene465217 0.0 10231305
13:00+13ene57406 0.0 10211799
16:00+14ene773959 0.0 10192125
19:00+12ne684947 0.0 10191551
22:00+10ne4116298 0.0 1019598
11 may, tue
tue1101:00+7ne39745 0.0 1018233
04:00+5ne311785 0.0 1018247
07:00+6ne411700 0.0 1019389
10:00+12ene610465 0.0 10181493
13:00+14ene68365 0.0 10181932
16:00+16ene673355 0.0 10172382
19:00+16ne573785 0.0 10172214
22:00+10ne3115554 0.0 1018261